Regional Weather Roundup
Issued by NWS Kansas City/Pleasant Hill, MO

Home | Current Version | Previous Version | Text Only | Print | Product List | Glossary On
Versions: 1 2 3 4 5 6 7 8 9 10 11 12 13 14 15 16 17 18 19 20 21 22 23 24 25 26 27
000
ASUS43 KEAX 242310
RWREAX

WEATHER ROUNDUP FOR EASTERN KANSAS AND NORTHWEST MISSOURI
NATIONAL WEATHER SERVICE KANSAS CITY/PLEASANT HILL MO
600 PM CDT TUE APR 24 2018

KSZ040-057-103>105-MOZ028-029-037-043-250000-
...KANSAS CITY METROPOLITAN AREA...

CITY           SKY/WX    TMP DP  RH WIND       PRES   REMARKS
K.C. INTL      CLOUDY    71  36  27 N8        30.06S
K.C. DOWNTOWN  MOSUNNY   75  36  24 N15       30.04S
LEES SUMMIT    MOSUNNY   73  36  25 N15       30.05S
OLATHE - IXD   SUNNY     74  34  23 N12       30.06S
OLATHE - OJC   MOSUNNY   75  32  20 N12       30.05S
LAWRENCE       CLOUDY    74  34  23 N14       30.06R

$$

MOZ001>008-011>017-020>025-030>033-038>040-044>046-053-054-250000-
...NORTHERN AND CENTRAL MISSOURI...

CITY           SKY/WX    TMP DP  RH WIND       PRES   REMARKS
ST. JOSEPH     CLOUDY    74  33  22 NW12      30.06S
MOSBY          PTCLDY    73  32  21 N8        30.05S
WARRENSBURG    MOSUNNY   75  32  20 NW13      30.04R
WHITEMAN AFB   PTSUNNY   76  35  22 NW13      29.99S
CLINTON        MOSUNNY   73  39  29 N8        30.04S
SEDALIA        MOSUNNY   77  37  23 NW12      30.03S
WARSAW         NOT AVBL
CHILLICOTHE      N/A     74  37  26 N8        30.04R
KIRKSVILLE     MOSUNNY   73  35  25 N14G21    30.03S

$$

MOZ041-047>049-056>058-063>065-088>090-097-250000-
...EASTERN AND SOUTHERN MISSOURI...

CITY           SKY/WX    TMP DP  RH WIND       PRES   REMARKS
ST. LOUIS INTL PTSUNNY   69  47  45 NW7       29.98R
SPIRIT OF STL  PTSUNNY   72  48  42 N8        29.98S
COLUMBIA       MOSUNNY   75  40  28 NW12      30.01S
JEFFERSON CITY PTSUNNY   75  45  34 NW12G18   30.00S
ROLLA          PTSUNNY   69  48  47 N7        30.02S
OSAGE BEACH    MOSUNNY   73  47  39 N6        30.03R
SPRINGFIELD    SUNNY     74  41  30 N13       30.03R
BRANSON        MOSUNNY   73  39  29 NW10G18   30.04R
JOPLIN         MOSUNNY   73  39  29 N12G20    30.05S
WEST PLAINS    MOSUNNY   71  47  42 NW10      30.02R

$$

IAZ060-094-KSZ022-034>040-054-083-096-NEZ052-066-093-250000-
...KANSAS...SOUTHEAST NEBRASKA AND IOWA...

CITY           SKY/WX    TMP DP  RH WIND       PRES   REMARKS
TOPEKA         PTSUNNY   68  45  43 NW21G33   30.09R
MANHATTAN      CLOUDY    59  47  64 N13G23    30.14F
EMPORIA        CLOUDY    65  45  48 NW23G31   30.10R
CHANUTE        SUNNY     75  34  22 N10       30.06S
WICHITA        CLOUDY    64  48  56 N22G30    30.14R
OMAHA          CLOUDY    62  45  53 NW15      30.15R
LINCOLN        LGT RAIN  52  49  89 N12       30.21S
FALLS CITY     CLOUDY    65  41  41 NW23G30   30.11R
LAMONI         CLOUDY    71  36  27 N14       30.05R
DES MOINES     CLOUDY    70  40  33 N14       30.07R

$$





USA.gov is the U.S. government's official web portal to all federal, state and local government web resources and services.